Location: Mountain View
(37.3861°N, 122.0839°W)
Time: 12:54:47
(UTC-07:00)

ISS - Pass Details

Date: 04 October 2021
Orbit: 417 x 423 km, 51.6° (Epoch: 27 October)

Event Time Altitude Azimuth Distance (km) Brightness Sun altitude
Rises 19:52:26 0° 314° (NW) 2,363 0.9 -13.9°
Reaches altitude 10° 19:54:34 10° 319° (NW) 1,498 -0.3 -14.4°
Maximum altitude 19:57:52 52° 37° (NE) 530 -3.5 -15.0°
Enters shadow 19:58:57 35° 92° (E) 701 -3.2 -15.2°
